Regional Weather Roundup
Issued by NWS Kansas City/Pleasant Hill, MO

Home | Current Version | Previous Version | Graphics & Text | Print | Product List | Glossary Off
Versions: 1 2 3 4 5 6 7 8 9 10 11 12 13 14 15 16 17 18 19 20 21 22 23 24 25 26 27 28 29 30 31 32 33 34 35 36 37 38 39 40 41 42 43 44 45 46 47 48 49 50

000
ASUS43 KEAX 302011
RWREAX

WEATHER ROUNDUP FOR EASTERN KANSAS AND NORTHWEST MISSOURI
NATIONAL WEATHER SERVICE KANSAS CITY/PLEASANT HILL MO
300 PM CDT SAT AUG 30 2014

KSZ040-057-103>105-MOZ028-029-037-043-302100-
...KANSAS CITY METROPOLITAN AREA...

CITY           SKY/WX    TMP DP  RH WIND       PRES   REMARKS
K.C. INTL      MOSUNNY   85  68  56 W3        29.92F
K.C. DOWNTOWN  SUNNY     88  67  49 CALM      29.90F HX  91
LEES SUMMIT    SUNNY     85  66  53 CALM      29.92F
OLATHE - IXD   MOSUNNY   88  65  46 VRB3      29.93F HX  90
OLATHE - OJC   MOSUNNY   85  65  51 VRB5      29.92F
LAWRENCE       MOSUNNY   92  66  42 E3        29.91F HX  94

$$

MOZ001>008-011>017-020>025-030>033-038>040-044>046-053-054-302100-
...NORTHERN AND CENTRAL MISSOURI...

CITY           SKY/WX    TMP DP  RH WIND       PRES   REMARKS
ST. JOSEPH     SUNNY     85  68  56 NW6       29.91F
MOSBY          PTCLDY    84  66  54 CALM      29.90F
WHITEMAN AFB   SUNNY     87  68  53 NW7       29.90F HX  90
CLINTON        MOSUNNY   90  68  48 W10       29.91F HX  93
SEDALIA        MOSUNNY   89  67  47 SW12      29.91F HX  92
WARSAW         NOT AVBL
CHILLICOTHE      N/A     84  68  58 CALM      29.92F
MOBERLY        SUNNY     86  68  54 W7        29.91F
KIRKSVILLE     SUNNY     84  67  56 W6        29.92F

$$

MOZ041-047>049-056>058-063>065-088>090-097-302100-
...EASTERN AND SOUTHERN MISSOURI...

CITY           SKY/WX    TMP DP  RH WIND       PRES   REMARKS
ST. LOUIS INTL PTSUNNY   87  72  60 S6        29.92F HX  93
SPIRIT OF STL  CLOUDY    83  72  69 S7        29.90F
COLUMBIA       MOSUNNY   89  67  47 W7        29.90F HX  92
JEFFERSON CITY MOSUNNY   89  68  49 VRB7      29.88F HX  93
MEXICO         MOSUNNY   91  73  55 W6        29.90F HX 100
HANNIBAL       MOSUNNY   88  66  48 W8        29.90S HX  90
ROLLA          TSTM      72  68  87 NE5       29.94F
LEBANON        PTSUNNY   82  68  61 S10       29.95F
OSAGE BEACH    MOSUNNY   84  66  54 S8        29.91F
SPRINGFIELD    MOSUNNY   89  65  44 SW10      29.92F HX  91
BRANSON        PTSUNNY   90  68  48 W7        29.96F HX  93
NEVADA         MOSUNNY   91  64  40 NW6       29.91  HX  93
JOPLIN         MOSUNNY   92  63  38 VRB3      29.91F HX  93
WEST PLAINS    PTSUNNY   81  67  62 S10       29.98F

$$

IAZ060-094-KSZ022-034>040-054-083-096-NEZ052-066-093-302100-
...KANSAS...SOUTHEAST NEBRASKA AND IOWA...

CITY           SKY/WX    TMP DP  RH WIND       PRES   REMARKS
TOPEKA         MOSUNNY   89  66  46 W7        29.91F HX  91
MANHATTAN      MOSUNNY   89  63  41 VRB5      29.91F HX  90
EMPORIA        SUNNY     90  59  35 VRB3      29.92F
CHANUTE        SUNNY     92  58  31 E3        29.91F HX  91
WICHITA        MOSUNNY   92  54  27 NW6       29.92F HX  90
OMAHA          MOSUNNY   79  65  62 VRB3      29.92F
LINCOLN        SUNNY     83  63  50 SE5       29.92F
FALLS CITY     SUNNY     86  67  52 VRB3      29.90F
LAMONI         MOSUNNY   82  68  62 W5        29.91F
DES MOINES     MOSUNNY   83  68  60 W9        29.88F

$$



USA.gov is the U.S. government's official web portal to all federal, state and local government web resources and services.